Location: El Portezuelo
(28.4984°N, 16.3589°W)
Time: 09:44:21
(UTC+00:00)

Okean O Rocket - Pass Details

Date: 20 January 2020
Orbit: 623 x 645 km, 98.2° (Epoch: 18 February)

Event Time Altitude Azimuth Distance (km) Brightness Sun altitude
Rises 06:13:53 0° 21° (NNE) 2,951 5.2 -22.7°
Reaches altitude 10° 06:16:11 10° 28° (NNE) 2,036 4.4 -22.2°
Maximum altitude 06:20:25 43° 100° (E) 896 2.8 -21.3°
Drops below altitude 10° 06:24:35 10° 172° (S) 2,014 4.4 -20.4°
Sets 06:26:51 0° 179° (S) 2,915 5.2 -20.0°
